Etusivu
METAR-TAF:

METAR-TAF

Lentoasemat :

Guadalupe Mountainsin kansallispuisto

Pine Springs, Texas, Yhdysvallat

Leveyspiiri: 31-49-52N, Pituuspiiri: 104-48-32W, korkeus merenpinnasta: 1661 m

Tämänhetkinen sää

Tämä raportti tehtiin 58 minuuttia sitten, kello 17.51 UTC
Tuuli 26 kn idästä/koillisesta
Lämpötila 3°C
Kosteus 44%
Ilmanpaine 1031 hPa
Näkyvyys: 16.1 km
selkeää

METAR: KGDP 201751Z AUTO 07026KT 10SM CLR 03/M08 A3044 RMK AO2 PK WND 06033/1707 SLP313 T00281083 10033 21006 51003

Aika: 12:49 (18:49 UTC)


TAF: puuttuu

Säähavainnot ja -ennusteet yli 4000 lentoasemalta (METAR- ja TAF-raportit).

Käytössä olevat sääasemat on merkitty karttaan keltaisilla ja punaisilla pisteillä.

Aseta hiiri pisteen päälle nähdäksesi sääaseman nimen.

Klikkaa sitten nähdäksesi säähavainnot ja -ennusteet.

Kartan vaihtaminen: klikkaa mustalla rastilla varustettuja vihreitä pisteitä, niin voit zoomata sisään; viivalla varustettua vihreää pistettä, niin voit zoomata ulos tai vihreitä nuolia, niin pääset viereisille kartoille.


METAR-TAF: